This is the latest recevied weather packets stored in our database for station/object W7MB. If no packets are shown the sender has not sent any weather packets the latest 10 day(s).
| Time | Temp. | Humidity | Pressure | Rain* | Wind** | Luminosity | Snow |
|---|---|---|---|---|---|---|---|
| 1777938843 | 26.11° C | 30% | 1007 hPa | 0 mm | - | - | - |
| 1777938483 | 26.67° C | 29% | 1007 hPa | 0 mm | - | - | - |
| 1777938123 | 27.22° C | 28% | 1007 hPa | 0 mm | - | - | - |
| 1777937763 | 27.78° C | 26% | 1007 hPa | 0 mm | - | - | - |
| 1777937403 | 28.89° C | 27% | 1006.9 hPa | 0 mm | - | - | - |
| 1777937043 | 28.89° C | 29% | 1007 hPa | 0 mm | - | - | - |
| 1777936683 | 28.89° C | 27% | 1007 hPa | 0 mm | - | - | - |
| 1777936323 | 29.44° C | 26% | 1007.1 hPa | 0 mm | - | - | - |
| 1777935963 | 29.44° C | 26% | 1007.1 hPa | 0 mm | - | - | - |
| 1777935604 | 30° C | 28% | 1007.2 hPa | 0 mm | - | - | - |
| 1777935244 | 29.44° C | 27% | 1007.1 hPa | 0 mm | - | - | - |
| 1777934883 | 29.44° C | 28% | 1007.1 hPa | 0 mm | - | - | - |
| 1777934523 | 30° C | 26% | 1007.2 hPa | 0 mm | - | - | - |
| 1777934163 | 30° C | 24% | 1007.2 hPa | 0 mm | - | - | - |
| 1777933803 | 30° C | 29% | 1007 hPa | 0 mm | - | - | - |
| 1777933443 | 30° C | 30% | 1007.3 hPa | 0 mm | - | - | - |
| 1777933083 | 30° C | 29% | 1007.3 hPa | 0 mm | - | - | - |
| 1777932723 | 30° C | 30% | 1007.4 hPa | 0 mm | - | - | - |
| 1777932363 | 30° C | 32% | 1007.5 hPa | 0 mm | - | - | - |
| 1777932004 | 30° C | 30% | 1007.6 hPa | 0 mm | - | - | - |
| 1777931643 | 30° C | 28% | 1007.6 hPa | 0 mm | - | - | - |
| 1777931283 | 30° C | 30% | 1007.7 hPa | 0 mm | - | - | - |
| 1777930923 | 30° C | 31% | 1007.8 hPa | 0 mm | - | - | - |
| 1777930563 | 30° C | 27% | 1007.8 hPa | 0 mm | - | - | - |
| 1777930203 | 30° C | 29% | 1008 hPa | 0 mm | - | - | - |
* Rain latest hour (hover to see other rain measurements)
** Current wind speed in m/s (hover to see current wind gust speed)